EHI
0 0 0 0 0 0 0 0 0 0 0 0 0 0 0 0 1 2 2 1 1 1 0 0 0 0 0 0 0 0 0 0 0 0 0 0 0 0 0 0 0 0 0 0
0 0 0 0 0 0 0 0 0 0 0 0 0 0 0 1 1 1 1 0 0 0 0 0 0 0 0 0 0 0 0 0 0 0 0 0 0 0 0 0 0 0 0 0
0 0 0 0 0 0 0 0 0 0 0 0 0 0 0 1 2 1 0 0 0 0 0 0 0 0 0 0 0 0 0 0 0 0 0 0 0 0 0 0 0 0 0 0
0 0 0 0 0 0 0 0 0 0 0 0 0 0 0 1 1 1 0 0 0 0 0 0 0 0 0 0 0 0 0 0 0 0 0 0 0 0 0 0 0 0 0 0
0 0 0 0 0 0 0 0 0 0 0 0 0 0 0 0 0 0 0 0 0 0 0 0 0 0 0 0 0 0 0 0 0 0 0 0 0 0 0 0 0 0 0 0
0 0 0 0 0 0 0 0 0 0 0 0 0 0 0 0 0 0 0 0 0 0 0 0 0 0 0 0 0 0 0 0 0 0 0 0 0 0 0 0 0 0 0 0
0 0 0 0 0 0 0 0 0 1 1 1 0 0 0 0 0 0 0 0 0 0 0 0 0 0 0 0 0 0 0 0 0 0 0 0 0 0 0 0 0 0 0 0
0 0 0 0 0 0 0 0 1 2 2 1 0 0 0 0 0 0 0 0 0 0 0 0 0 0 0 0 0 0 0 0 0 0 0 0 0 0 0 0 0 0 0 0
0 0 0 0 0 0 0 0 1 2 1 0 0 0 0 0 0 0 0 0 0 0 0 0 0 0 0 0 0 0 0 0 0 0 0 0 0 0 0 0 0 0 0 0
0 0 0 0 0 0 0 0 1 1 1 0 0 0 0 0 0 0 0 0 0 0 0 0 0 0 0 0 0 0 0 0 0 0 0 0 0 0 0 0 0 0 0 0
0 0 0 0 0 0 0 0 0 1 0 0 0 0 0 0 0 0 0 0 0 0 0 0 0 0 0 0 0 0 0 0 0 0 0 0 0 0 0 0 0 0 0 0
0 0 0 0 0 0 0 0 1 1 0 0 0 0 0 0 0 0 0 0 0 0 0 0 0 0 0 0 0 0 0 0 0 0 0 0 0 0 0 0 0 0 0 0
0 0 0 0 0 0 0 1 1 1 0 0 0 0 0 0 0 0 0 0 0 0 0 0 0 0 0 0 0 0 0 0 0 0 0 0 0 0 0 0 0 0 0 0
0 0 0 0 0 0 0 1 1 1 0 0 0 0 0 0 0 0 0 0 0 0 0 0 0 0 0 0 0 0 0 0 0 0 0 0 0 0 0 0 0 0 0 0
0 0 0 0 0 0 0 0 0 0 0 0 0 0 0 0 0 0 0 0 0 0 0 0 0 0 0 0 0 0 0 0 0 0 0 0 0 0 0 0 0 0 0 0
0 0 0 0 0 0 0 0 0 0 0 0 0 0 0 0 0 0 0 0 0 0 0 0 0 0 0 0 0 0 0 0 0 0 0 0 0 0 0 0 0 0 0 0
0 0 0 0 0 0 0 0 0 0 0 0 0 0 0 0 0 0 0 0 0 0 0 0 0 0 0 0 0 0 0 0 0 0 0 0 0 0 0 0 0 0 0 0
0 0 0 0 0 0 0 0 0 0 0 0 0 0 0 0 0 0 0 0 0 0 0 0 0 0 0 0 0 0 0 0 0 0 0 0 0 0 0 0 0 0 0 0
0 0 0 0 0 0 0 0 0 0 0 0 0 0 0 0 0 0 0 0 0 0 0 0 0 0 0 0 0 0 0 0 0 0 0 0 0 0 0 0 0 0 0 0
0 0 0 0 0 0 0 0 0 0 0 0 0 0 0 0 0 0 0 0 0 0 0 0 0 0 0 0 0 0 0 0 0 0 0 0 0 0 0 0 0 0 0 0
0 0 0 0 0 0 0 0 0 0 0 0 0 0 0 0 0 0 0 0 0 0 0 0 0 0 0 0 0 0 0 0 0 0 0 0 0 0 0 0 0 0 0 0
0 0 0 0 0 0 0 0 0 0 0 0 0 0 0 0 0 0 0 0 0 0 0 0 0 0 0 0 0 0 0 0 0 0 0 0 0 0 0 0 0 0 0 0
0 0 0 0 0 0 0 0 0 0 0 0 0 0 0 0 0 0 0 0 0 0 0 0 0 0 0 0 0 0 0 0 0 0 0 0 0 0 0 0 0 0 0 0
0 0 0 0 0 0 0 0 0 0 0 0 0 0 0 0 0 0 0 0 0 0 0 0 0 0 0 0 0 0 0 0 0 0 0 0 0 0 0 0 0 0 0 0
0 0 0 0 0 0 0 0 0 0 0 0 0 0 0 0 0 0 0 0 0 0 0 0 0 0 0 0 0 0 0 0 0 0 0 0 0 0 0 0 0 0 0 0
0 0 0 0 0 0 0 0 0 0 0 0 0 0 0 0 0 0 0 0 0 0 0 0 0 0 0 0 0 0 0 0 0 0 0 0 0 0 0 0 0 0 0 0
0 0 0 0 0 0 0 0 0 0 0 0 0 0 0 0 0 0 0 0 0 0 0 0 0 0 0 0 0 0 0 0 0 0 0 0 0 0 0 0 0 0 0 0
Wind_Speed
3 4 3 5 7 6 3 1 2 2 2 2 2 2 2 1 1 1 0 0 0 1 1 1 1 1 1 1 1 0 0 1 2 2 2 2 1 2 2 2 2 1 1 1
4 4 4 4 6 5 3 3 2 2 1 2 2 1 1 2 1 1 1 1 2 2 2 2 2 2 2 2 1 1 1 2 2 2 2 1 1 1 2 2 2 1 1 1
3 6 4 4 4 4 3 3 2 0 3 2 2 2 1 2 2 1 2 2 3 3 3 3 3 3 3 2 1 1 1 2 2 2 2 2 1 1 1 2 2 1 1 1
1 4 2 4 1 3 4 3 3 1 1 1 1 2 1 1 1 2 2 2 3 3 2 2 2 1 1 1 1 1 1 2 1 1 1 1 1 1 2 2 1 1 1 2
2 1 4 3 2 1 1 1 3 3 4 4 3 3 3 2 1 2 2 2 2 3 2 1 1 1 1 0 0 0 1 1 1 1 1 1 2 2 2 2 2 2 2 2
2 1 3 4 5 3 3 1 3 3 3 3 3 3 4 4 3 2 2 2 2 1 1 1 1 1 1 0 0 1 2 2 2 1 1 2 2 2 2 1 2 2 2 2
2 3 4 3 4 3 2 5 4 2 2 2 2 4 5 4 4 2 2 1 1 1 1 1 1 1 1 1 2 2 2 1 1 1 2 2 2 2 2 1 1 1 2 2
1 1 5 3 3 1 4 3 2 2 2 3 3 3 3 3 3 2 2 1 0 1 1 1 1 1 1 2 3 2 1 1 1 2 2 1 1 2 1 0 1 1 1 2
5 6 5 1 2 2 3 1 2 2 4 3 2 3 3 3 3 2 2 2 1 0 1 2 1 1 1 3 2 0 0 1 2 2 2 1 1 1 1 0 0 1 1 1
2 3 3 2 1 1 0 1 3 3 3 2 3 3 3 3 3 2 2 2 1 1 1 2 2 1 2 3 1 1 0 1 1 1 2 2 1 1 1 1 1 1 1 1
3 4 4 2 2 2 2 2 2 3 3 2 2 3 3 3 3 2 2 2 2 2 3 4 3 2 2 2 1 1 1 1 1 1 1 2 2 2 2 3 3 3 2 2
6 6 4 6 5 3 2 3 3 3 3 3 2 3 3 3 3 3 2 2 2 3 4 4 3 3 2 2 2 2 1 1 1 1 1 1 2 3 3 2 3 3 4 3
7 5 5 5 4 3 3 4 4 2 2 3 3 3 3 3 3 3 2 2 3 3 4 4 3 3 3 2 2 3 2 2 1 1 1 1 1 1 2 4 4 3 2 3
4 2 2 3 4 4 3 4 3 2 2 2 2 3 2 3 3 3 3 4 3 3 3 4 4 4 3 3 2 2 2 2 2 2 1 2 2 1 1 1 1 3 3 3
3 3 4 4 3 3 3 3 3 3 4 4 3 2 3 3 4 4 4 3 2 2 3 3 4 4 3 3 3 3 2 2 2 1 2 2 1 1 1 1 1 1 1 2
4 2 2 2 3 4 4 3 3 3 3 3 3 3 3 4 4 4 3 2 3 3 3 3 4 4 3 3 3 2 2 3 2 1 1 1 1 1 1 1 1 1 1 1
2 3 3 3 4 4 4 3 3 3 3 3 4 4 3 2 3 3 3 3 4 4 4 4 4 4 3 3 3 2 2 2 2 1 1 2 2 2 1 1 1 1 1 1
5 5 4 4 3 4 5 4 3 3 4 4 4 3 3 3 4 4 4 4 3 3 4 4 4 3 3 3 3 2 2 1 1 2 2 2 2 2 1 1 2 1 0 1
1 1 2 2 3 3 4 4 4 4 4 3 3 4 4 5 5 5 3 3 3 4 5 4 4 3 3 3 3 2 2 2 2 2 2 2 2 1 1 1 1 1 2 1
2 2 2 2 3 3 4 4 5 5 4 4 3 4 4 5 5 4 3 3 4 5 4 4 3 3 3 4 4 2 3 3 3 2 2 2 2 2 1 2 2 2 2 2
2 3 3 3 4 5 5 5 5 5 5 4 4 5 6 6 5 4 3 4 5 4 3 4 3 3 3 3 4 3 3 2 3 2 2 2 2 2 1 2 2 2 2 2
3 3 4 4 5 6 6 5 5 6 5 5 5 5 5 5 5 4 5 4 4 4 3 3 3 4 4 4 3 3 3 3 3 3 2 2 2 2 2 2 2 2 2 2
3 4 4 5 5 6 7 6 6 5 5 5 5 6 6 6 5 4 4 4 3 5 4 3 4 6 6 3 3 3 3 3 3 3 3 2 2 2 3 3 3 2 3 3
4 5 6 6 5 5 6 7 6 5 5 5 6 6 5 4 4 4 4 5 6 6 4 5 7 8 6 3 3 3 3 3 3 3 2 2 2 2 3 3 3 3 3 4
5 5 6 6 5 5 6 6 6 5 4 4 5 5 4 4 4 4 4 5 7 7 4 6 9 8 5 3 4 4 3 3 3 2 2 2 3 3 3 3 4 4 4 4
5 5 5 5 4 4 5 4 4 4 4 3 3 4 3 3 4 3 3 5 6 7 5 4 5 6 4 4 4 4 3 3 3 2 3 3 3 4 4 4 5 4 4 4
5 5 4 4 4 4 4 4 4 4 4 3 4 4 4 3 3 3 4 4 4 5 5 5 5 5 5 4 4 4 3 3 2 3 3 3 3 4 5 6 4 4 4 5
Wind_Direction
256 279 319 320 323 331 341 213 175 224 208 246 260 253 274 297 345 3 350 252 242 280 293 276 253 247 235 250 257 218 201 225 239 248 256 260 282 296 310 290 258 253 243 262
319 312 332 332 336 341 5 38 76 106 259 258 271 343 19 346 311 291 302 283 281 287 286 279 254 247 255 248 248 244 256 254 239 248 265 261 254 258 312 307 284 279 257 243
296 310 349 334 341 11 43 26 80 132 272 303 359 6 335 294 291 278 289 290 286 271 262 258 249 236 233 236 246 242 255 263 255 250 252 237 238 302 307 296 270 264 257 234
277 2 317 253 290 79 90 46 37 46 333 295 246 253 235 257 281 306 305 302 297 278 262 261 251 260 230 223 209 236 261 270 266 237 237 242 264 280 278 277 264 247 253 242
130 265 279 300 337 5 100 354 16 28 359 348 355 21 337 331 334 276 272 277 277 269 253 242 234 232 145 156 213 289 271 251 250 244 247 251 257 261 263 269 264 255 247 246
138 197 251 264 311 321 95 303 342 10 356 344 14 1 294 306 315 303 298 286 290 297 305 212 241 178 133 250 286 271 259 255 256 233 238 252 255 256 258 249 240 252 278 272
180 225 258 263 307 27 65 262 292 319 296 298 281 243 262 293 308 301 294 294 308 331 279 235 227 149 149 248 260 257 258 266 259 244 246 252 256 263 262 268 282 307 310 307
157 221 257 301 23 90 225 241 260 276 268 262 278 294 298 301 302 311 308 316 360 8 299 262 209 146 186 263 264 265 259 296 281 269 273 298 274 279 278 296 347 319 327 324
192 218 243 261 176 222 185 210 273 273 277 265 270 286 299 297 285 283 268 256 250 206 296 300 260 171 213 270 277 246 219 276 286 306 299 297 267 258 291 322 242 283 285 300
281 274 301 319 336 356 201 218 258 268 270 254 266 270 283 279 273 279 277 247 221 180 248 285 274 236 235 264 250 152 194 266 292 303 307 322 313 265 235 237 234 256 241 275
278 287 316 308 311 319 328 317 298 295 287 251 264 276 270 262 262 254 263 251 207 205 225 251 257 253 250 257 190 161 180 253 290 269 279 311 313 286 249 239 211 196 216 218
238 240 230 266 277 290 312 299 292 302 306 288 261 256 270 259 253 246 250 248 235 230 234 248 242 245 253 235 186 166 189 257 253 246 275 288 302 320 321 277 262 231 217 213
226 234 228 251 272 281 281 283 289 283 266 270 281 271 253 255 256 247 253 241 234 235 239 240 236 244 255 229 187 176 200 230 244 248 262 281 289 298 317 338 346 329 279 254
239 228 269 271 279 287 292 298 304 299 293 272 277 287 265 262 258 238 235 235 233 237 239 231 230 244 250 215 189 187 204 230 238 244 254 261 266 264 237 229 311 323 323 310
251 229 233 258 280 292 296 316 322 311 314 315 309 289 272 269 253 241 240 235 223 235 243 232 232 248 244 206 181 189 205 236 248 262 268 270 273 275 262 231 229 268 315 338
247 258 254 271 286 297 306 304 294 289 298 300 298 287 268 263 255 246 238 214 207 233 247 239 238 242 222 187 181 197 214 223 231 246 282 296 275 260 247 225 248 258 260 271
226 260 272 284 284 286 284 271 261 270 277 274 273 276 269 275 267 258 249 229 219 232 236 229 236 235 208 189 184 195 211 233 244 257 263 262 257 252 237 205 203 219 243 218
219 220 222 232 251 278 291 286 275 276 272 267 266 267 253 253 254 253 247 240 242 254 247 229 222 217 204 198 191 194 199 221 236 241 253 265 262 252 224 188 189 190 199 108
257 240 247 253 251 262 277 278 273 269 267 261 262 256 247 244 246 251 248 231 235 248 255 238 209 195 202 208 194 187 195 220 245 254 251 258 274 261 201 176 184 178 166 152
321 312 309 302 300 296 293 284 275 268 263 259 263 262 256 254 251 244 240 238 235 234 234 221 204 201 204 208 196 201 210 222 235 253 255 249 251 246 209 174 166 169 167 164
318 312 315 313 310 304 293 287 277 268 261 250 243 246 246 251 250 237 233 253 264 242 218 208 206 210 208 202 197 206 215 226 239 242 243 242 241 226 192 172 172 169 162 156
322 313 305 301 301 300 294 285 274 268 258 251 248 243 242 250 250 243 239 230 233 221 211 213 218 216 208 202 205 215 224 236 247 245 240 234 217 205 189 178 172 167 152 148
306 307 308 297 291 289 291 287 276 263 251 246 243 238 237 238 229 221 245 245 216 204 204 218 224 223 218 211 216 222 231 238 245 241 230 220 204 191 176 170 162 154 144 140
297 300 301 294 299 305 299 292 282 266 252 245 237 232 228 234 248 235 221 219 215 211 211 216 218 223 221 215 216 221 227 231 234 231 220 202 176 167 160 150 143 141 139 134
290 297 302 302 303 296 288 289 292 283 266 255 247 237 226 216 224 236 226 220 215 209 216 214 216 222 219 217 214 220 227 228 224 221 205 176 166 163 158 149 144 143 142 138
286 290 289 279 274 284 290 287 288 286 275 264 258 245 238 234 228 224 218 220 217 211 212 211 210 212 213 215 216 220 222 223 220 208 193 177 167 162 156 147 143 146 145 140
290 293 298 302 297 293 292 279 273 276 259 244 251 250 239 233 233 230 224 220 215 215 211 208 207 202 202 207 211 214 213 212 205 199 183 169 161 161 157 151 149 144 140 137